GPCSJ FPPR-FGSL

Flight info

Callsign GPCSJ
Flight time 0h 59m
Altitude 4000
Route DCT
Aircraft BE33/L-DOV/C

Departure

Time 2026-05-04 18:13
Airport Principe Airport (FPPR)

Arrival

Time 2026-05-04 19:12
Airport Malabo International Airport (FGSL)
Time Latitude Longitude Altitude Speed Heading
2026-05-04 18:04 1.66572 7.41226 578 ft 0 kts 235°
2026-05-04 18:08 1.66537 7.41203 579 ft 0 kts 235°
2026-05-04 18:09 1.66509 7.41190 579 ft 5 kts 181°
2026-05-04 18:10 1.66487 7.41175 580 ft 0 kts 256°
2026-05-04 18:11 1.66481 7.41150 580 ft 5 kts 258°
2026-05-04 18:11 1.66456 7.41104 580 ft 9 kts 205°
2026-05-04 18:12 1.66441 7.41100 580 ft 1 kts 181°
2026-05-04 18:12 1.66319 7.41100 581 ft 45 kts 177°
2026-05-04 18:12 1.65868 7.41099 615 ft 74 kts 174°
2026-05-04 18:12 1.65291 7.41150 797 ft 88 kts 159°
2026-05-04 18:13 1.64907 7.41639 982 ft 97 kts 96°
2026-05-04 18:13 1.65173 7.42211 1254 ft 99 kts 32°
2026-05-04 18:13 1.66577 7.42401 1798 ft 95 kts
2026-05-04 18:14 1.67188 7.42664 2008 ft 98 kts 23°
2026-05-04 18:14 1.67849 7.42920 2173 ft 106 kts 24°
2026-05-04 18:14 1.68572 7.43310 2173 ft 127 kts 30°
2026-05-04 18:15 1.70121 7.44243 2542 ft 126 kts 32°
2026-05-04 18:15 1.71574 7.45156 3003 ft 119 kts 32°
2026-05-04 18:15 1.72268 7.45601 3235 ft 116 kts 32°
2026-05-04 18:16 1.72947 7.46034 3467 ft 114 kts 31°
2026-05-04 18:16 1.73603 7.46447 3696 ft 111 kts 31°
2026-05-04 18:16 1.74260 7.46854 3931 ft 110 kts 31°
2026-05-04 18:17 1.75642 7.47704 4161 ft 128 kts 31°
2026-05-04 18:17 1.76447 7.48177 4159 ft 141 kts 30°
2026-05-04 18:17 1.78264 7.49217 4152 ft 155 kts 30°
2026-05-04 18:18 1.79198 7.49757 4151 ft 157 kts 30°
2026-05-04 18:18 1.80157 7.50319 4151 ft 159 kts 30°
2026-05-04 18:18 1.81120 7.50892 4150 ft 161 kts 31°
2026-05-04 18:18 1.82090 7.51475 4151 ft 161 kts 31°
2026-05-04 18:19 1.84012 7.52638 4150 ft 162 kts 31°
2026-05-04 18:19 1.84985 7.53234 4151 ft 162 kts 31°
2026-05-04 18:19 1.85954 7.53829 4152 ft 162 kts 31°
2026-05-04 18:20 1.86909 7.54414 4151 ft 162 kts 31°
2026-05-04 18:20 1.87875 7.55008 4151 ft 162 kts 31°
2026-05-04 18:20 1.88844 7.55606 4150 ft 162 kts 31°
2026-05-04 18:20 1.89803 7.56198 4150 ft 162 kts 31°
2026-05-04 18:21 1.90768 7.56794 4150 ft 162 kts 31°
2026-05-04 18:21 1.91734 7.57390 4150 ft 162 kts 31°
2026-05-04 18:21 1.92700 7.57986 4149 ft 162 kts 31°
2026-05-04 18:21 1.93665 7.58581 4149 ft 162 kts 31°
2026-05-04 18:22 1.94630 7.59176 4150 ft 162 kts 31°
2026-05-04 18:22 1.95594 7.59771 4151 ft 162 kts 31°
2026-05-04 18:22 1.96558 7.60369 4152 ft 162 kts 31°
2026-05-04 18:22 1.97514 7.60960 4153 ft 162 kts 31°
2026-05-04 18:23 1.98480 7.61557 4153 ft 162 kts 31°
2026-05-04 18:23 1.99446 7.62153 4153 ft 162 kts 31°
2026-05-04 18:23 2.00414 7.62752 4153 ft 163 kts 31°
2026-05-04 18:23 2.01385 7.63352 4152 ft 163 kts 31°
2026-05-04 18:24 2.02346 7.63944 4152 ft 163 kts 31°
2026-05-04 18:24 2.03315 7.64542 4152 ft 162 kts 31°
2026-05-04 18:24 2.04288 7.65143 4153 ft 162 kts 31°
2026-05-04 18:24 2.05246 7.65733 4153 ft 162 kts 31°
2026-05-04 18:25 2.06213 7.66333 4154 ft 163 kts 31°
2026-05-04 18:25 2.07182 7.66930 4154 ft 163 kts 31°
2026-05-04 18:25 2.08152 7.67529 4154 ft 163 kts 31°
2026-05-04 18:25 2.09121 7.68128 4153 ft 163 kts 31°
2026-05-04 18:26 2.10084 7.68721 4153 ft 163 kts 31°
2026-05-04 18:26 2.11054 7.69320 4154 ft 163 kts 31°
2026-05-04 18:26 2.12022 7.69920 4155 ft 163 kts 32°
2026-05-04 18:26 2.12946 7.70583 4154 ft 163 kts 40°
2026-05-04 18:27 2.13844 7.71288 4157 ft 163 kts 35°
2026-05-04 18:27 2.14791 7.71930 4156 ft 164 kts 34°
2026-05-04 18:27 2.15746 7.72559 4155 ft 164 kts 32°
2026-05-04 18:27 2.16727 7.73152 4156 ft 164 kts 29°
2026-05-04 18:28 2.17729 7.73676 4155 ft 163 kts 26°
2026-05-04 18:28 2.18742 7.74209 4154 ft 163 kts 28°
2026-05-04 18:28 2.19738 7.74770 4153 ft 163 kts 30°
2026-05-04 18:28 2.20724 7.75348 4154 ft 163 kts 30°
2026-05-04 18:29 2.21706 7.75934 4154 ft 163 kts 30°
2026-05-04 18:29 2.22686 7.76525 4154 ft 163 kts 31°
2026-05-04 18:29 2.23662 7.77118 4154 ft 163 kts 31°
2026-05-04 18:29 2.24635 7.77713 4154 ft 163 kts 31°
2026-05-04 18:30 2.26578 7.78912 4154 ft 163 kts 31°
2026-05-04 18:30 2.27538 7.79501 4154 ft 163 kts 31°
2026-05-04 18:30 2.28508 7.80099 4154 ft 163 kts 31°
2026-05-04 18:31 2.29478 7.80698 4154 ft 163 kts 31°
2026-05-04 18:31 2.30447 7.81297 4154 ft 163 kts 31°
2026-05-04 18:31 2.31418 7.81896 4154 ft 163 kts 31°
2026-05-04 18:31 2.32389 7.82496 4154 ft 163 kts 31°
2026-05-04 18:32 2.33357 7.83094 4154 ft 163 kts 31°
2026-05-04 18:32 2.34326 7.83695 4154 ft 163 kts 31°
2026-05-04 18:32 2.35284 7.84288 4154 ft 163 kts 31°
2026-05-04 18:32 2.36255 7.84886 4154 ft 163 kts 31°
2026-05-04 18:33 2.37226 7.85485 4154 ft 163 kts 31°
2026-05-04 18:33 2.38196 7.86084 4154 ft 163 kts 31°
2026-05-04 18:33 2.39165 7.86684 4154 ft 163 kts 31°
2026-05-04 18:33 2.40135 7.87285 4154 ft 163 kts 31°
2026-05-04 18:34 2.41106 7.87884 4154 ft 163 kts 31°
2026-05-04 18:34 2.42076 7.88485 4154 ft 163 kts 31°
2026-05-04 18:34 2.43048 7.89086 4154 ft 163 kts 31°
2026-05-04 18:34 2.44022 7.89687 4154 ft 163 kts 31°
2026-05-04 18:35 2.44981 7.90278 4154 ft 163 kts 31°
2026-05-04 18:35 2.45953 7.90878 4153 ft 163 kts 31°
2026-05-04 18:35 2.46925 7.91481 4154 ft 163 kts 31°
2026-05-04 18:35 2.47900 7.92082 4154 ft 163 kts 31°
2026-05-04 18:36 2.48872 7.92682 4153 ft 163 kts 31°
2026-05-04 18:36 2.49831 7.93277 4153 ft 163 kts 31°
2026-05-04 18:36 2.50808 7.93882 4154 ft 163 kts 31°
2026-05-04 18:36 2.51779 7.94479 4153 ft 163 kts 31°
2026-05-04 18:37 2.52750 7.95080 4154 ft 163 kts 31°
2026-05-04 18:37 2.53720 7.95679 4153 ft 163 kts 31°
2026-05-04 18:37 2.54677 7.96272 4153 ft 163 kts 31°
2026-05-04 18:37 2.55647 7.96872 4154 ft 163 kts 31°
2026-05-04 18:38 2.56620 7.97472 4153 ft 163 kts 31°
2026-05-04 18:38 2.57592 7.98075 4154 ft 163 kts 31°
2026-05-04 18:38 2.58564 7.98676 4154 ft 163 kts 31°
2026-05-04 18:38 2.59538 7.99278 4153 ft 163 kts 31°
2026-05-04 18:39 2.60510 7.99879 4152 ft 163 kts 31°
2026-05-04 18:39 2.61471 8.00472 4152 ft 163 kts 31°
2026-05-04 18:39 2.62443 8.01073 4152 ft 163 kts 31°
2026-05-04 18:39 2.63416 8.01674 4153 ft 163 kts 31°
2026-05-04 18:40 2.64387 8.02273 4153 ft 163 kts 31°
2026-05-04 18:40 2.65357 8.02872 4153 ft 163 kts 31°
2026-05-04 18:40 2.66328 8.03474 4154 ft 163 kts 31°
2026-05-04 18:40 2.67299 8.04074 4154 ft 163 kts 31°
2026-05-04 18:41 2.68272 8.04675 4153 ft 163 kts 31°
2026-05-04 18:41 2.69231 8.05268 4153 ft 163 kts 31°
2026-05-04 18:41 2.70201 8.05869 4153 ft 163 kts 31°
2026-05-04 18:41 2.71172 8.06468 4153 ft 163 kts 31°
2026-05-04 18:42 2.72144 8.07068 4153 ft 163 kts 31°
2026-05-04 18:42 2.73114 8.07669 4153 ft 163 kts 31°
2026-05-04 18:42 2.74087 8.08269 4154 ft 163 kts 29°
2026-05-04 18:42 2.75161 8.08648 4161 ft 163 kts 12°
2026-05-04 18:43 2.76282 8.08889 4154 ft 164 kts 12°
2026-05-04 18:43 2.77386 8.09141 4153 ft 164 kts 12°
2026-05-04 18:43 2.78506 8.09395 4152 ft 164 kts 12°
2026-05-04 18:43 2.79623 8.09653 4153 ft 164 kts 12°
2026-05-04 18:44 2.80741 8.09914 4153 ft 164 kts 13°
2026-05-04 18:44 2.81485 8.10089 4153 ft 164 kts 13°
2026-05-04 18:44 2.82975 8.10439 4152 ft 164 kts 13°
2026-05-04 18:44 2.84091 8.10703 4153 ft 164 kts 13°
2026-05-04 18:45 2.85207 8.10965 4152 ft 164 kts 13°
2026-05-04 18:45 2.86308 8.11229 4152 ft 164 kts 13°
2026-05-04 18:45 2.87423 8.11499 4152 ft 164 kts 13°
2026-05-04 18:45 2.88539 8.11767 4152 ft 164 kts 13°
2026-05-04 18:46 2.89656 8.12035 4153 ft 164 kts 13°
2026-05-04 18:46 2.90770 8.12312 4151 ft 163 kts 15°
2026-05-04 18:46 2.91853 8.12648 4151 ft 163 kts 19°
2026-05-04 18:46 2.92890 8.13131 4155 ft 163 kts 27°
2026-05-04 18:47 2.93945 8.13581 4155 ft 163 kts 21°
2026-05-04 18:47 2.94982 8.14033 4153 ft 164 kts 25°
2026-05-04 18:47 2.96004 8.14557 4154 ft 164 kts 26°
2026-05-04 18:47 2.97047 8.15042 4155 ft 164 kts 21°
2026-05-04 18:48 2.98094 8.15516 4150 ft 164 kts 26°
2026-05-04 18:48 2.99090 8.16055 4152 ft 164 kts 28°
2026-05-04 18:48 3.00095 8.16603 4153 ft 163 kts 27°
2026-05-04 18:48 3.01101 8.17149 4153 ft 163 kts 27°
2026-05-04 18:49 3.02106 8.17696 4152 ft 163 kts 27°
2026-05-04 18:49 3.03108 8.18246 4152 ft 163 kts 28°
2026-05-04 18:49 3.04111 8.18796 4150 ft 164 kts 28°
2026-05-04 18:49 3.05104 8.19344 4150 ft 164 kts 28°
2026-05-04 18:50 3.06106 8.19897 4151 ft 163 kts 28°
2026-05-04 18:50 3.07108 8.20448 4151 ft 164 kts 28°
2026-05-04 18:50 3.08110 8.21001 4151 ft 163 kts 28°
2026-05-04 18:50 3.09111 8.21554 4151 ft 163 kts 28°
2026-05-04 18:51 3.10115 8.22111 4151 ft 163 kts 28°
2026-05-04 18:51 3.11108 8.22664 4151 ft 164 kts 28°
2026-05-04 18:51 3.12112 8.23223 4151 ft 164 kts 28°
2026-05-04 18:51 3.13101 8.23775 4151 ft 164 kts 28°
2026-05-04 18:52 3.14103 8.24334 4151 ft 164 kts 28°
2026-05-04 18:52 3.15103 8.24894 4150 ft 164 kts 28°
2026-05-04 18:52 3.16104 8.25456 4150 ft 163 kts 28°
2026-05-04 18:52 3.17047 8.26105 4142 ft 164 kts 40°
2026-05-04 18:53 3.17850 8.26923 4147 ft 164 kts 46°
2026-05-04 18:53 3.18618 8.27755 4150 ft 164 kts 46°
2026-05-04 18:53 3.19397 8.28594 4151 ft 164 kts 45°
2026-05-04 18:53 3.20177 8.29433 4151 ft 164 kts 45°
2026-05-04 18:54 3.20956 8.30273 4151 ft 164 kts 45°
2026-05-04 18:54 3.21728 8.31106 4151 ft 164 kts 46°
2026-05-04 18:54 3.22506 8.31946 4151 ft 164 kts 46°
2026-05-04 18:54 3.23284 8.32789 4151 ft 164 kts 46°
2026-05-04 18:55 3.24060 8.33633 4151 ft 164 kts 46°
2026-05-04 18:55 3.25603 8.35312 4150 ft 164 kts 46°
2026-05-04 18:55 3.26377 8.36157 4151 ft 164 kts 46°
2026-05-04 18:56 3.27148 8.37003 4151 ft 164 kts 46°
2026-05-04 18:56 3.27908 8.37837 4151 ft 164 kts 46°
2026-05-04 18:56 3.28691 8.38698 4149 ft 164 kts 46°
2026-05-04 18:56 3.29464 8.39549 4149 ft 164 kts 46°
2026-05-04 18:57 3.30278 8.40448 4149 ft 164 kts 46°
2026-05-04 18:57 3.31049 8.41300 4148 ft 164 kts 46°
2026-05-04 18:57 3.31833 8.42170 4148 ft 164 kts 46°
2026-05-04 18:57 3.32605 8.43030 4149 ft 164 kts 46°
2026-05-04 18:58 3.33372 8.43885 4148 ft 164 kts 46°
2026-05-04 18:58 3.34137 8.44740 4148 ft 164 kts 46°
2026-05-04 18:58 3.34894 8.45587 4148 ft 164 kts 46°
2026-05-04 18:58 3.35690 8.46483 4146 ft 164 kts 46°
2026-05-04 18:59 3.36550 8.47423 4148 ft 163 kts 41°
2026-05-04 18:59 3.37621 8.48133 4150 ft 163 kts 28°
2026-05-04 18:59 3.38737 8.48776 4153 ft 163 kts 31°
2026-05-04 18:59 3.39738 8.49645 4146 ft 164 kts 48°
2026-05-04 19:00 3.40485 8.50731 4160 ft 165 kts 55°
2026-05-04 19:00 3.41223 8.51818 4161 ft 165 kts 51°
2026-05-04 19:00 3.42047 8.52876 4160 ft 165 kts 50°
2026-05-04 19:00 3.42824 8.53874 4162 ft 165 kts 50°
2026-05-04 19:01 3.43590 8.54855 4166 ft 164 kts 49°
2026-05-04 19:01 3.44421 8.55791 4169 ft 164 kts 45°
2026-05-04 19:01 3.45263 8.56706 4171 ft 164 kts 46°
2026-05-04 19:01 3.46093 8.57617 4174 ft 164 kts 46°
2026-05-04 19:02 3.46931 8.58542 4178 ft 164 kts 46°
2026-05-04 19:02 3.47779 8.59479 4179 ft 164 kts 46°
2026-05-04 19:02 3.48635 8.60432 4182 ft 164 kts 46°
2026-05-04 19:02 3.49488 8.61385 4190 ft 164 kts 46°
2026-05-04 19:03 3.50385 8.62317 4196 ft 164 kts 42°
2026-05-04 19:03 3.51333 8.63188 4197 ft 164 kts 39°
2026-05-04 19:03 3.52312 8.63988 4198 ft 164 kts 36°
2026-05-04 19:03 3.53326 8.64784 4194 ft 164 kts 37°
2026-05-04 19:04 3.54341 8.65591 4194 ft 163 kts 37°
2026-05-04 19:04 3.55361 8.66401 4191 ft 163 kts 37°
2026-05-04 19:04 3.56351 8.67189 4191 ft 162 kts 37°
2026-05-04 19:04 3.57235 8.67902 4193 ft 162 kts 37°
2026-05-04 19:05 3.58273 8.68687 4192 ft 162 kts 34°
2026-05-04 19:05 3.59198 8.69357 4194 ft 162 kts 34°
2026-05-04 19:05 3.60112 8.70032 4201 ft 163 kts 35°
2026-05-04 19:05 3.61039 8.70711 4190 ft 163 kts 34°
2026-05-04 19:06 3.61957 8.71373 4195 ft 163 kts 34°
2026-05-04 19:06 3.62885 8.72045 4194 ft 163 kts 34°
2026-05-04 19:06 3.63885 8.72727 4013 ft 173 kts 25°
2026-05-04 19:06 3.65208 8.72637 3831 ft 177 kts 333°
2026-05-04 19:07 3.66527 8.71959 3545 ft 184 kts 331°
2026-05-04 19:07 3.67858 8.71223 3223 ft 190 kts 328°
2026-05-04 19:07 3.69163 8.70471 2770 ft 197 kts 332°
2026-05-04 19:07 3.70637 8.70194 2376 ft 201 kts
2026-05-04 19:08 3.72147 8.70596 1735 ft 209 kts 23°
2026-05-04 19:08 3.73464 8.71454 1543 ft 193 kts 36°
2026-05-04 19:08 3.74534 8.72295 1344 ft 176 kts 36°
2026-05-04 19:08 3.75472 8.73088 1183 ft 160 kts 43°
2026-05-04 19:09 3.76282 8.73826 1252 ft 142 kts 34°
2026-05-04 19:09 3.77102 8.74398 1331 ft 143 kts 30°
2026-05-04 19:09 3.78012 8.74886 1305 ft 149 kts 12°
2026-05-04 19:09 3.78940 8.74733 1316 ft 121 kts 327°
2026-05-04 19:10 3.79178 8.74178 890 ft 76 kts 239°
2026-05-04 19:10 3.78857 8.73868 691 ft 71 kts 223°
2026-05-04 19:10 3.78523 8.73565 660 ft 60 kts 226°
2026-05-04 19:10 3.78201 8.73271 567 ft 57 kts 229°
2026-05-04 19:11 3.77905 8.72977 503 ft 58 kts 228°
2026-05-04 19:11 3.77583 8.72691 409 ft 58 kts 225°
2026-05-04 19:11 3.77241 8.72411 317 ft 68 kts 223°
2026-05-04 19:11 3.76843 8.72058 229 ft 79 kts 223°
2026-05-04 19:12 3.76426 8.71678 128 ft 77 kts 223°
2026-05-04 19:12 3.75747 8.71065 102 ft 51 kts 225°
2026-05-04 19:12 3.75610 8.71015 102 ft 20 kts 140°
2026-05-04 19:13 3.75570 8.71056 99 ft 4 kts 135°
2026-05-04 19:13 3.75509 8.71090 96 ft 12 kts 207°
2026-05-04 19:13 3.75414 8.71006 102 ft 25 kts 223°
2026-05-04 19:13 3.75262 8.70870 110 ft 30 kts 221°
2026-05-04 19:14 3.75080 8.70707 115 ft 37 kts 223°
2026-05-04 19:14 3.74918 8.70563 120 ft 18 kts 223°
2026-05-04 19:14 3.74828 8.70555 122 ft 12 kts 91°
2026-05-04 19:14 3.74865 8.70653 124 ft 12 kts 86°
2026-05-04 19:15 3.74835 8.70668 126 ft 0 kts 270°